Time,TemperatureF,DewpointF,PressureIn,WindDirection,WindDirectionDegrees,WindSpeedMPH,WindSpeedGustMPH,Humidity,HourlyPrecipIn,Conditions,Clouds,dailyrainin,SolarRadiationWatts/m^2,SoftwareType,DateUTC
2013-03-02 00:07:00,54.9,52.0,30.28,ESE,106,0.0,3.0,90,0.00,,,0.00,0,Wunderground v.1.15,2013-03-02 08:07:00,
2013-03-02 00:13:00,54.7,51.8,30.28,ESE,106,0.0,0.0,90,0.00,,,0.00,0,Wunderground v.1.15,2013-03-02 08:13:00,
2013-03-02 00:18:00,54.5,51.9,30.28,ESE,106,0.0,0.0,91,0.00,,,0.00,0,Wunderground v.1.15,2013-03-02 08:18:00,
2013-03-02 00:24:00,54.5,51.6,30.28,ESE,106,0.0,0.0,90,0.00,,,0.00,0,Wunderground v.1.15,2013-03-02 08:24:00,
2013-03-02 00:30:00,54.4,51.8,30.28,ESE,106,1.0,1.0,91,0.00,,,0.00,0,Wunderground v.1.15,2013-03-02 08:30:00,
2013-03-02 00:35:00,54.4,51.5,30.28,ESE,106,0.0,1.0,90,0.00,,,0.00,0,Wunderground v.1.15,2013-03-02 08:35:00,
2013-03-02 00:41:00,54.4,51.8,30.28,ESE,106,0.0,0.0,91,0.00,,,0.00,0,Wunderground v.1.15,2013-03-02 08:41:00,
2013-03-02 00:47:00,54.4,51.8,30.28,ESE,106,1.0,1.0,91,0.00,,,0.00,0,Wunderground v.1.15,2013-03-02 08:47:00,
2013-03-02 00:52:00,54.4,51.5,30.28,ESE,105,1.0,2.0,90,0.00,,,0.00,0,Wunderground v.1.15,2013-03-02 08:52:00,
2013-03-02 00:58:00,54.4,51.5,30.28,ESE,107,0.0,2.0,90,0.00,,,0.00,0,Wunderground v.1.15,2013-03-02 08:58:00,
2013-03-02 01:04:00,54.3,51.4,30.28,ESE,107,0.0,4.0,90,0.00,,,0.00,0,Wunderground v.1.15,2013-03-02 09:04:00,
2013-03-02 01:09:00,54.4,51.5,30.28,ESE,116,0.0,0.0,90,0.00,,,0.00,0,Wunderground v.1.15,2013-03-02 09:09:00,
2013-03-02 01:15:00,54.3,51.4,30.28,ESE,104,0.0,2.0,90,0.00,,,0.00,0,Wunderground v.1.15,2013-03-02 09:15:00,
2013-03-02 01:20:00,54.2,51.3,30.28,ESE,114,0.0,0.0,90,0.00,,,0.00,0,Wunderground v.1.15,2013-03-02 09:20:00,
2013-03-02 01:26:00,54.2,51.3,30.29,East,101,0.0,3.0,90,0.00,,,0.00,0,Wunderground v.1.15,2013-03-02 09:26:00,
2013-03-02 01:32:00,54.0,51.1,30.29,East,101,0.0,0.0,90,0.00,,,0.00,0,Wunderground v.1.15,2013-03-02 09:32:00,
2013-03-02 01:37:00,53.9,51.0,30.28,East,99,0.0,0.0,90,0.00,,,0.00,0,Wunderground v.1.15,2013-03-02 09:37:00,
2013-03-02 01:42:00,53.9,51.0,30.28,East,99,0.0,0.0,90,0.00,,,0.00,0,Wunderground v.1.15,2013-03-02 09:42:00,
2013-03-02 01:47:00,53.8,50.9,30.28,East,100,0.0,0.0,90,0.00,,,0.00,0,Wunderground v.1.15,2013-03-02 09:47:00,
2013-03-02 01:52:00,53.7,50.8,30.28,East,99,0.0,0.0,90,0.00,,,0.00,0,Wunderground v.1.15,2013-03-02 09:52:00,
2013-03-02 01:58:00,53.6,50.7,30.28,ESE,109,1.0,1.0,90,0.00,,,0.00,0,Wunderground v.1.15,2013-03-02 09:58:00,
2013-03-02 02:03:00,53.6,50.7,30.28,ESE,114,1.0,3.0,90,0.00,,,0.00,0,Wunderground v.1.15,2013-03-02 10:03:00,
2013-03-02 02:14:00,53.7,50.8,30.27,ESE,107,1.0,2.0,90,0.00,,,0.00,0,Wunderground v.1.15,2013-03-02 10:14:00,
2013-03-02 02:20:00,53.7,50.8,30.27,ESE,110,0.0,0.0,90,0.00,,,0.00,0,Wunderground v.1.15,2013-03-02 10:20:00,
2013-03-02 02:25:00,53.7,50.8,30.27,ESE,111,0.0,1.0,90,0.00,,,0.00,0,Wunderground v.1.15,2013-03-02 10:25:00,
2013-03-02 02:31:00,53.7,50.5,30.27,SE,131,1.0,1.0,89,0.00,,,0.00,0,Wunderground v.1.15,2013-03-02 10:31:00,
2013-03-02 02:36:00,53.7,50.5,30.27,SE,126,0.0,2.0,89,0.00,,,0.00,0,Wunderground v.1.15,2013-03-02 10:36:00,
2013-03-02 02:42:00,53.8,50.6,30.27,SE,136,0.0,1.0,89,0.00,,,0.00,0,Wunderground v.1.15,2013-03-02 10:42:00,
2013-03-02 02:48:00,53.9,50.4,30.26,ESE,111,0.0,3.0,88,0.00,,,0.00,0,Wunderground v.1.15,2013-03-02 10:48:00,
2013-03-02 02:54:00,54.0,50.5,30.26,ESE,119,0.0,2.0,88,0.00,,,0.00,0,Wunderground v.1.15,2013-03-02 10:54:00,
2013-03-02 03:00:00,54.0,50.5,30.26,SE,127,0.0,2.0,88,0.00,,,0.00,0,Wunderground v.1.15,2013-03-02 11:00:00,
2013-03-02 03:08:00,53.4,50.2,30.25,SE,127,0.0,2.0,89,0.00,,,0.00,0,Wunderground v.1.15,2013-03-02 11:08:00,
2013-03-02 03:13:00,53.5,50.3,30.25,SE,127,0.0,0.0,89,0.00,,,0.00,0,Wunderground v.1.15,2013-03-02 11:13:00,
2013-03-02 03:19:00,53.5,50.3,30.25,SE,127,0.0,0.0,89,0.00,,,0.00,0,Wunderground v.1.15,2013-03-02 11:19:00,
2013-03-02 03:24:00,53.5,50.3,30.25,SE,127,0.0,0.0,89,0.00,,,0.00,0,Wunderground v.1.15,2013-03-02 11:24:00,
2013-03-02 03:30:00,53.5,50.0,30.24,SE,127,0.0,0.0,88,0.00,,,0.00,0,Wunderground v.1.15,2013-03-02 11:30:00,
2013-03-02 03:35:00,53.5,50.3,30.24,SE,127,0.0,0.0,89,0.00,,,0.00,0,Wunderground v.1.15,2013-03-02 11:35:00,
2013-03-02 03:40:00,53.5,50.3,30.24,SE,127,0.0,0.0,89,0.00,,,0.00,0,Wunderground v.1.15,2013-03-02 11:40:00,
2013-03-02 03:46:00,53.5,50.0,30.24,SE,127,0.0,0.0,88,0.00,,,0.00,0,Wunderground v.1.15,2013-03-02 11:46:00,
2013-03-02 03:52:00,53.5,49.7,30.25,SE,127,0.0,0.0,87,0.00,,,0.00,0,Wunderground v.1.15,2013-03-02 11:52:00,
2013-03-02 03:58:00,53.6,49.8,30.25,SE,127,0.0,1.0,87,0.00,,,0.00,0,Wunderground v.1.15,2013-03-02 11:58:00,
2013-03-02 04:03:00,53.7,49.9,30.25,SE,127,1.0,4.0,87,0.00,,,0.00,0,Wunderground v.1.15,2013-03-02 12:03:00,
2013-03-02 04:09:00,53.8,50.0,30.25,SE,135,1.0,4.0,87,0.00,,,0.00,0,Wunderground v.1.15,2013-03-02 12:09:00,
2013-03-02 04:15:00,53.8,49.7,30.24,ESE,115,1.0,2.0,86,0.00,,,0.00,0,Wunderground v.1.15,2013-03-02 12:15:00,
2013-03-02 04:21:00,53.9,49.8,30.25,SE,140,2.0,2.0,86,0.00,,,0.00,0,Wunderground v.1.15,2013-03-02 12:21:00,
2013-03-02 04:27:00,54.0,49.6,30.25,SE,132,2.0,5.0,85,0.00,,,0.00,0,Wunderground v.1.15,2013-03-02 12:27:00,
2013-03-02 04:33:00,54.4,49.7,30.24,ESE,117,2.0,4.0,84,0.00,,,0.00,0,Wunderground v.1.15,2013-03-02 12:33:00,
2013-03-02 04:39:00,54.6,49.5,30.24,ESE,111,1.0,4.0,83,0.00,,,0.00,0,Wunderground v.1.15,2013-03-02 12:39:00,
2013-03-02 04:45:00,54.5,49.8,30.25,SE,125,0.0,0.0,84,0.00,,,0.00,0,Wunderground v.1.15,2013-03-02 12:45:00,
2013-03-02 04:51:00,54.5,49.8,30.24,SE,130,2.0,2.0,84,0.00,,,0.00,0,Wunderground v.1.15,2013-03-02 12:51:00,
2013-03-02 04:56:00,54.8,49.7,30.24,ESE,113,4.0,5.0,83,0.00,,,0.00,0,Wunderground v.1.15,2013-03-02 12:56:00,
2013-03-02 05:03:00,54.9,49.5,30.24,ESE,117,3.0,4.0,82,0.00,,,0.00,0,Wunderground v.1.15,2013-03-02 13:03:00,
2013-03-02 05:08:00,55.0,49.6,30.23,ESE,122,2.0,4.0,82,0.00,,,0.00,0,Wunderground v.1.15,2013-03-02 13:08:00,
2013-03-02 05:14:00,55.0,49.6,30.24,ESE,113,2.0,4.0,82,0.00,,,0.00,0,Wunderground v.1.15,2013-03-02 13:14:00,
2013-03-02 05:20:00,54.9,49.5,30.23,ESE,113,0.0,0.0,82,0.00,,,0.00,0,Wunderground v.1.15,2013-03-02 13:20:00,
2013-03-02 05:26:00,54.8,49.4,30.24,ESE,113,0.0,0.0,82,0.00,,,0.00,0,Wunderground v.1.15,2013-03-02 13:26:00,
2013-03-02 05:32:00,54.7,49.6,30.24,ESE,112,0.0,1.0,83,0.00,,,0.00,0,Wunderground v.1.15,2013-03-02 13:32:00,
2013-03-02 05:37:00,54.6,49.2,30.24,ESE,114,0.0,1.0,82,0.00,,,0.00,0,Wunderground v.1.15,2013-03-02 13:37:00,
2013-03-02 05:43:00,54.6,49.2,30.24,ESE,115,0.0,0.0,82,0.00,,,0.00,0,Wunderground v.1.15,2013-03-02 13:43:00,
2013-03-02 05:49:00,54.5,49.1,30.24,ESE,113,3.0,4.0,82,0.00,,,0.00,0,Wunderground v.1.15,2013-03-02 13:49:00,
2013-03-02 05:55:00,54.7,49.0,30.24,SE,137,1.0,3.0,81,0.00,,,0.00,0,Wunderground v.1.15,2013-03-02 13:55:00,
2013-03-02 06:00:00,54.7,49.0,30.24,ESE,123,2.0,2.0,81,0.00,,,0.00,0,Wunderground v.1.15,2013-03-02 14:00:00,
2013-03-02 06:07:00,54.7,49.0,30.24,SE,130,1.0,8.0,81,0.00,,,0.00,0,Wunderground v.1.15,2013-03-02 14:07:00,
2013-03-02 06:12:00,54.6,48.9,30.25,SE,143,0.0,0.0,81,0.00,,,0.00,0,Wunderground v.1.15,2013-03-02 14:12:00,
2013-03-02 06:18:00,54.5,49.1,30.25,SE,143,0.0,0.0,82,0.00,,,0.00,0,Wunderground v.1.15,2013-03-02 14:18:00,
2013-03-02 06:24:00,54.3,48.6,30.25,SE,143,0.0,0.0,81,0.00,,,0.00,0,Wunderground v.1.15,2013-03-02 14:24:00,
2013-03-02 06:30:00,54.4,48.7,30.26,SE,142,0.0,0.0,81,0.00,,,0.00,0,Wunderground v.1.15,2013-03-02 14:30:00,
2013-03-02 06:36:00,53.8,48.8,30.25,ESE,112,0.0,0.0,83,0.00,,,0.00,0,Wunderground v.1.15,2013-03-02 14:36:00,
2013-03-02 06:41:00,52.6,48.5,30.26,South,185,0.0,1.0,86,0.00,,,0.00,0,Wunderground v.1.15,2013-03-02 14:41:00,
2013-03-02 06:47:00,52.4,48.3,30.26,SW,221,0.0,2.0,86,0.00,,,0.00,0,Wunderground v.1.15,2013-03-02 14:47:00,
2013-03-02 06:53:00,51.9,48.5,30.26,SW,220,0.0,0.0,88,0.00,,,0.00,0,Wunderground v.1.15,2013-03-02 14:53:00,
2013-03-02 06:58:00,51.7,48.6,30.26,SW,220,0.0,0.0,89,0.00,,,0.00,0,Wunderground v.1.15,2013-03-02 14:58:00,
2013-03-02 07:07:00,51.6,48.8,30.26,SSE,165,2.0,5.0,90,0.00,,,0.00,0,Wunderground v.1.15,2013-03-02 15:07:00,
2013-03-02 07:12:00,51.5,49.0,30.26,SSE,165,0.0,2.0,91,0.00,,,0.00,0,Wunderground v.1.15,2013-03-02 15:12:00,
2013-03-02 07:18:00,51.6,49.4,30.26,SSE,165,0.0,2.0,92,0.00,,,0.00,0,Wunderground v.1.15,2013-03-02 15:18:00,
2013-03-02 07:24:00,51.8,49.5,30.27,SSE,165,1.0,1.0,92,0.00,,,0.00,0,Wunderground v.1.15,2013-03-02 15:24:00,
2013-03-02 07:29:00,51.8,49.8,30.26,SSE,165,1.0,1.0,93,0.00,,,0.00,0,Wunderground v.1.15,2013-03-02 15:29:00,
2013-03-02 07:34:00,51.8,49.8,30.26,SSE,165,0.0,1.0,93,0.00,,,0.00,0,Wunderground v.1.15,2013-03-02 15:34:00,
2013-03-02 07:40:00,51.8,49.8,30.26,SSE,165,0.0,0.0,93,0.00,,,0.00,0,Wunderground v.1.15,2013-03-02 15:40:00,
2013-03-02 07:46:00,51.8,49.8,30.27,SSE,165,0.0,0.0,93,0.00,,,0.00,0,Wunderground v.1.15,2013-03-02 15:46:00,
2013-03-02 07:51:00,52.0,50.3,30.27,SSE,165,0.0,0.0,94,0.00,,,0.00,0,Wunderground v.1.15,2013-03-02 15:51:00,
2013-03-02 07:57:00,52.4,50.7,30.27,SSE,165,0.0,0.0,94,0.00,,,0.00,0,Wunderground v.1.15,2013-03-02 15:57:00,
2013-03-02 08:03:00,52.7,51.0,30.27,SSE,165,0.0,2.0,94,0.00,,,0.00,0,Wunderground v.1.15,2013-03-02 16:03:00,
2013-03-02 08:08:00,52.9,50.9,30.27,SSE,165,1.0,2.0,93,0.00,,,0.00,0,Wunderground v.1.15,2013-03-02 16:08:00,
2013-03-02 08:14:00,53.3,51.9,30.27,SSE,165,0.0,0.0,95,0.00,,,0.00,0,Wunderground v.1.15,2013-03-02 16:14:00,
2013-03-02 08:19:00,53.6,52.2,30.27,NE,56,0.0,0.0,95,0.00,,,0.00,0,Wunderground v.1.15,2013-03-02 16:19:00,
2013-03-02 08:25:00,53.7,52.0,30.27,NE,55,0.0,0.0,94,0.00,,,0.00,0,Wunderground v.1.15,2013-03-02 16:25:00,
2013-03-02 08:31:00,53.8,52.1,30.27,NE,55,0.0,0.0,94,0.00,,,0.00,0,Wunderground v.1.15,2013-03-02 16:31:00,
2013-03-02 08:37:00,54.1,52.4,30.27,NE,55,0.0,0.0,94,0.00,,,0.00,0,Wunderground v.1.15,2013-03-02 16:37:00,
2013-03-02 08:42:00,54.3,52.9,30.28,NE,55,0.0,0.0,95,0.00,,,0.00,0,Wunderground v.1.15,2013-03-02 16:42:00,
2013-03-02 08:47:00,54.5,53.1,30.28,NE,55,0.0,0.0,95,0.00,,,0.00,0,Wunderground v.1.15,2013-03-02 16:47:00,
2013-03-02 08:52:00,55.1,53.4,30.28,NE,54,0.0,0.0,94,0.00,,,0.00,0,Wunderground v.1.15,2013-03-02 16:52:00,
2013-03-02 08:57:00,55.8,52.6,30.27,NNE,21,1.0,1.0,89,0.00,,,0.00,0,Wunderground v.1.15,2013-03-02 16:57:00,
2013-03-02 09:03:00,56.4,52.6,30.27,NE,44,0.0,2.0,87,0.00,,,0.00,0,Wunderground v.1.15,2013-03-02 17:03:00,
2013-03-02 09:08:00,57.0,52.9,30.27,NE,44,0.0,2.0,86,0.00,,,0.00,0,Wunderground v.1.15,2013-03-02 17:08:00,
2013-03-02 09:14:00,57.5,53.0,30.27,NNE,21,0.0,2.0,85,0.00,,,0.00,0,Wunderground v.1.15,2013-03-02 17:14:00,
2013-03-02 09:19:00,58.2,52.7,30.26,North,7,0.0,0.0,82,0.00,,,0.00,0,Wunderground v.1.15,2013-03-02 17:19:00,
2013-03-02 09:25:00,58.8,53.6,30.26,North,7,0.0,0.0,83,0.00,,,0.00,0,Wunderground v.1.15,2013-03-02 17:25:00,
2013-03-02 09:31:00,59.2,53.7,30.26,North,7,0.0,0.0,82,0.00,,,0.00,0,Wunderground v.1.15,2013-03-02 17:31:00,
2013-03-02 09:37:00,59.7,54.2,30.26,NNW,347,0.0,1.0,82,0.00,,,0.00,0,Wunderground v.1.15,2013-03-02 17:37:00,
2013-03-02 09:43:00,60.2,54.3,30.26,NNW,331,2.0,2.0,81,0.00,,,0.00,0,Wunderground v.1.15,2013-03-02 17:43:00,
2013-03-02 09:48:00,60.9,54.7,30.26,WNW,294,2.0,2.0,80,0.00,,,0.00,0,Wunderground v.1.15,2013-03-02 17:48:00,
2013-03-02 09:54:00,61.7,55.1,30.25,West,281,1.0,2.0,79,0.00,,,0.00,0,Wunderground v.1.15,2013-03-02 17:54:00,
2013-03-02 09:59:00,62.4,55.1,30.25,West,262,2.0,2.0,77,0.00,,,0.00,0,Wunderground v.1.15,2013-03-02 17:59:00,
2013-03-02 10:08:00,63.4,56.1,30.25,WSW,245,2.0,4.0,77,0.00,,,0.00,0,Wunderground v.1.15,2013-03-02 18:08:00,
2013-03-02 10:13:00,63.9,56.2,30.25,NW,307,0.0,4.0,76,0.00,,,0.00,0,Wunderground v.1.15,2013-03-02 18:13:00,
2013-03-02 10:18:00,64.2,55.7,30.25,WNW,303,2.0,4.0,74,0.00,,,0.00,0,Wunderground v.1.15,2013-03-02 18:18:00,
2013-03-02 10:24:00,64.2,55.7,30.24,WSW,253,0.0,2.0,74,0.00,,,0.00,0,Wunderground v.1.15,2013-03-02 18:24:00,
2013-03-02 10:30:00,64.7,55.8,30.25,WNW,301,6.0,6.0,73,0.00,,,0.00,0,Wunderground v.1.15,2013-03-02 18:30:00,
2013-03-02 10:35:00,64.9,56.0,30.24,SW,216,2.0,6.0,73,0.00,,,0.00,0,Wunderground v.1.15,2013-03-02 18:35:00,
2013-03-02 10:41:00,65.2,56.3,30.24,WNW,293,4.0,5.0,73,0.00,,,0.00,0,Wunderground v.1.15,2013-03-02 18:41:00,
2013-03-02 10:46:00,65.5,56.6,30.25,SSW,203,5.0,5.0,73,0.00,,,0.00,0,Wunderground v.1.15,2013-03-02 18:46:00,
2013-03-02 10:52:00,65.7,56.4,30.25,SW,230,0.0,0.0,72,0.00,,,0.00,0,Wunderground v.1.15,2013-03-02 18:52:00,
2013-03-02 10:57:00,66.0,56.7,30.24,SW,232,2.0,3.0,72,0.00,,,0.00,0,Wunderground v.1.15,2013-03-02 18:57:00,
2013-03-02 11:02:00,66.6,57.3,30.24,WNW,294,0.0,6.0,72,0.00,,,0.00,0,Wunderground v.1.15,2013-03-02 19:02:00,
2013-03-02 11:08:00,67.1,57.8,30.24,SE,143,2.0,6.0,72,0.00,,,0.00,0,Wunderground v.1.15,2013-03-02 19:08:00,
2013-03-02 11:13:00,67.3,58.0,30.24,WNW,289,1.0,3.0,72,0.00,,,0.00,0,Wunderground v.1.15,2013-03-02 19:13:00,
2013-03-02 11:18:00,67.2,57.1,30.23,SSW,197,0.0,3.0,70,0.00,,,0.00,0,Wunderground v.1.15,2013-03-02 19:18:00,
2013-03-02 11:23:00,67.4,57.7,30.24,West,271,2.0,4.0,71,0.00,,,0.00,0,Wunderground v.1.15,2013-03-02 19:23:00,
2013-03-02 11:29:00,67.8,58.1,30.24,West,266,4.0,5.0,71,0.00,,,0.00,0,Wunderground v.1.15,2013-03-02 19:29:00,
2013-03-02 11:35:00,68.2,58.4,30.23,NW,314,5.0,5.0,71,0.00,,,0.00,0,Wunderground v.1.15,2013-03-02 19:35:00,
2013-03-02 11:41:00,68.1,58.3,30.23,WNW,285,2.0,2.0,71,0.00,,,0.00,0,Wunderground v.1.15,2013-03-02 19:41:00,
2013-03-02 11:46:00,68.3,58.1,30.23,WSW,241,1.0,4.0,70,0.00,,,0.00,0,Wunderground v.1.15,2013-03-02 19:46:00,
2013-03-02 11:51:00,68.5,58.7,30.23,SW,223,2.0,4.0,71,0.00,,,0.00,0,Wunderground v.1.15,2013-03-02 19:51:00,
2013-03-02 11:56:00,68.5,57.9,30.23,WSW,254,1.0,4.0,69,0.00,,,0.00,0,Wunderground v.1.15,2013-03-02 19:56:00,
2013-03-02 12:01:00,68.5,58.3,30.22,WSW,258,2.0,2.0,70,0.00,,,0.00,0,Wunderground v.1.15,2013-03-02 20:01:00,
2013-03-02 12:07:00,68.9,57.9,30.22,West,272,1.0,6.0,68,0.00,,,0.00,0,Wunderground v.1.15,2013-03-02 20:07:00,
2013-03-02 12:13:00,69.1,58.5,30.22,SSE,167,0.0,1.0,69,0.00,,,0.00,0,Wunderground v.1.15,2013-03-02 20:13:00,
2013-03-02 12:18:00,69.1,58.1,30.21,NW,308,1.0,7.0,68,0.00,,,0.00,0,Wunderground v.1.15,2013-03-02 20:18:00,
2013-03-02 12:23:00,68.9,58.3,30.21,West,278,0.0,4.0,69,0.00,,,0.00,0,Wunderground v.1.15,2013-03-02 20:23:00,
2013-03-02 12:28:00,68.8,58.2,30.20,NW,310,3.0,4.0,69,0.00,,,0.00,0,Wunderground v.1.15,2013-03-02 20:28:00,
2013-03-02 12:33:00,69.2,59.8,30.20,WSW,255,3.0,3.0,72,0.00,,,0.00,0,Wunderground v.1.15,2013-03-02 20:33:00,
2013-03-02 12:39:00,69.8,58.8,30.20,WNW,283,0.0,5.0,68,0.00,,,0.00,0,Wunderground v.1.15,2013-03-02 20:39:00,
2013-03-02 14:52:00,71.7,59.3,30.13,WSW,251,0.0,2.0,65,0.00,,,0.00,0,Wunderground v.1.15,2013-03-02 22:52:00,
2013-03-02 14:58:00,71.7,59.3,30.13,West,273,2.0,2.0,65,0.00,,,0.00,0,Wunderground v.1.15,2013-03-02 22:58:00,
2013-03-02 15:02:00,71.6,58.8,30.13,WNW,300,3.0,7.0,64,0.00,,,0.00,0,Wunderground v.1.15,2013-03-02 23:02:00,
2013-03-02 15:09:00,71.5,59.1,30.12,WNW,296,2.0,7.0,65,0.00,,,0.00,0,Wunderground v.1.15,2013-03-02 23:09:00,
2013-03-02 15:15:00,71.3,58.9,30.12,NW,322,0.0,1.0,65,0.00,,,0.00,0,Wunderground v.1.15,2013-03-02 23:15:00,
2013-03-02 15:20:00,71.1,59.2,30.12,NW,320,1.0,1.0,66,0.00,,,0.00,0,Wunderground v.1.15,2013-03-02 23:20:00,
2013-03-02 15:26:00,71.0,59.9,30.11,NW,317,2.0,4.0,68,0.00,,,0.00,0,Wunderground v.1.15,2013-03-02 23:26:00,
2013-03-02 15:32:00,70.9,60.2,30.12,NW,309,0.0,0.0,69,0.00,,,0.00,0,Wunderground v.1.15,2013-03-02 23:32:00,
2013-03-02 15:38:00,70.9,59.8,30.12,West,264,3.0,3.0,68,0.00,,,0.00,0,Wunderground v.1.15,2013-03-02 23:38:00,
2013-03-02 15:44:00,70.8,60.1,30.11,NNW,329,2.0,3.0,69,0.00,,,0.00,0,Wunderground v.1.15,2013-03-02 23:44:00,
2013-03-02 15:50:00,70.6,59.5,30.11,NNW,327,4.0,4.0,68,0.00,,,0.00,0,Wunderground v.1.15,2013-03-02 23:50:00,
2013-03-02 15:55:00,70.3,59.6,30.10,WNW,302,3.0,4.0,69,0.00,,,0.00,0,Wunderground v.1.15,2013-03-02 23:55:00,
2013-03-02 16:02:00,70.1,59.9,30.11,NW,305,0.0,4.0,70,0.00,,,0.00,0,Wunderground v.1.15,2013-03-03 00:02:00,
2013-03-02 16:09:00,69.9,59.7,30.10,WNW,289,1.0,4.0,70,0.00,,,0.00,0,Wunderground v.1.15,2013-03-03 00:09:00,
2013-03-02 16:14:00,69.6,59.4,30.10,NW,322,0.0,3.0,70,0.00,,,0.00,0,Wunderground v.1.15,2013-03-03 00:14:00,
2013-03-02 16:21:00,69.3,59.5,30.10,WSW,256,1.0,2.0,71,0.00,,,0.00,0,Wunderground v.1.15,2013-03-03 00:21:00,
2013-03-02 16:27:00,69.1,59.7,30.09,West,264,0.0,2.0,72,0.00,,,0.00,0,Wunderground v.1.15,2013-03-03 00:27:00,
2013-03-02 16:33:00,68.9,59.5,30.09,WNW,303,0.0,1.0,72,0.00,,,0.00,0,Wunderground v.1.15,2013-03-03 00:33:00,
2013-03-02 16:38:00,68.7,59.3,30.09,NW,304,1.0,3.0,72,0.00,,,0.00,0,Wunderground v.1.15,2013-03-03 00:38:00,
2013-03-02 16:44:00,68.4,58.6,30.09,West,275,3.0,3.0,71,0.00,,,0.00,0,Wunderground v.1.15,2013-03-03 00:44:00,
2013-03-02 16:51:00,68.2,58.8,30.09,West,278,0.0,0.0,72,0.00,,,0.00,0,Wunderground v.1.15,2013-03-03 00:51:00,
2013-03-02 16:57:00,68.0,58.6,30.10,West,278,1.0,2.0,72,0.00,,,0.00,0,Wunderground v.1.15,2013-03-03 00:57:00,
2013-03-02 17:03:00,67.7,58.3,30.10,WNW,288,0.0,5.0,72,0.00,,,0.00,0,Wunderground v.1.15,2013-03-03 01:03:00,
2013-03-02 17:09:00,67.5,58.5,30.10,WNW,288,0.0,5.0,73,0.00,,,0.00,0,Wunderground v.1.15,2013-03-03 01:09:00,
2013-03-02 17:14:00,67.4,58.4,30.09,WNW,288,0.0,0.0,73,0.00,,,0.00,0,Wunderground v.1.15,2013-03-03 01:14:00,
2013-03-02 17:20:00,67.1,58.2,30.09,WNW,288,0.0,0.0,73,0.00,,,0.00,0,Wunderground v.1.15,2013-03-03 01:20:00,
2013-03-02 17:25:00,67.0,58.1,30.09,WNW,288,0.0,1.0,73,0.00,,,0.00,0,Wunderground v.1.15,2013-03-03 01:25:00,
2013-03-02 17:30:00,66.6,58.1,30.09,NW,314,0.0,1.0,74,0.00,,,0.00,0,Wunderground v.1.15,2013-03-03 01:30:00,
2013-03-02 17:36:00,66.4,57.9,30.09,NW,315,0.0,1.0,74,0.00,,,0.00,0,Wunderground v.1.15,2013-03-03 01:36:00,
2013-03-02 17:41:00,66.2,58.0,30.09,NW,316,0.0,0.0,75,0.00,,,0.00,0,Wunderground v.1.15,2013-03-03 01:41:00,
2013-03-02 17:46:00,66.1,57.9,30.10,NW,316,0.0,0.0,75,0.00,,,0.00,0,Wunderground v.1.15,2013-03-03 01:46:00,
2013-03-02 17:51:00,65.8,58.0,30.09,NW,316,0.0,0.0,76,0.00,,,0.00,0,Wunderground v.1.15,2013-03-03 01:51:00,
2013-03-02 17:57:00,65.6,57.5,30.09,NW,316,0.0,0.0,75,0.00,,,0.00,0,Wunderground v.1.15,2013-03-03 01:57:00,
2013-03-02 18:02:00,65.4,57.6,30.09,NW,316,0.0,4.0,76,0.00,,,0.00,0,Wunderground v.1.15,2013-03-03 02:02:00,
2013-03-02 18:07:00,65.1,57.7,30.08,NW,316,0.0,4.0,77,0.00,,,0.00,0,Wunderground v.1.15,2013-03-03 02:07:00,
2013-03-02 18:13:00,65.0,58.0,30.09,NW,316,0.0,0.0,78,0.00,,,0.00,0,Wunderground v.1.15,2013-03-03 02:13:00,
2013-03-02 18:19:00,64.7,57.7,30.08,NW,316,0.0,0.0,78,0.00,,,0.00,0,Wunderground v.1.15,2013-03-03 02:19:00,
2013-03-02 18:24:00,64.6,57.6,30.08,NW,316,0.0,0.0,78,0.00,,,0.00,0,Wunderground v.1.15,2013-03-03 02:24:00,
2013-03-02 18:29:00,64.3,57.6,30.08,NNW,337,0.0,0.0,79,0.00,,,0.00,0,Wunderground v.1.15,2013-03-03 02:29:00,
2013-03-02 18:34:00,63.9,57.6,30.08,NNE,26,0.0,0.0,80,0.00,,,0.00,0,Wunderground v.1.15,2013-03-03 02:34:00,
2013-03-02 18:39:00,63.8,57.5,30.08,NNE,26,0.0,0.0,80,0.00,,,0.00,0,Wunderground v.1.15,2013-03-03 02:39:00,
2013-03-02 18:44:00,63.6,58.0,30.08,NNE,26,0.0,0.0,82,0.00,,,0.00,0,Wunderground v.1.15,2013-03-03 02:44:00,
2013-03-02 18:50:00,63.4,57.8,30.09,NNE,26,0.0,0.0,82,0.00,,,0.00,0,Wunderground v.1.15,2013-03-03 02:50:00,
2013-03-02 18:55:00,63.2,57.3,30.09,NNE,26,0.0,0.0,81,0.00,,,0.00,0,Wunderground v.1.15,2013-03-03 02:55:00,
2013-03-02 19:02:00,63.1,57.5,30.09,NNE,26,0.0,1.0,82,0.00,,,0.00,0,Wunderground v.1.15,2013-03-03 03:02:00,
2013-03-02 19:07:00,63.0,57.4,30.09,NNE,26,0.0,1.0,82,0.00,,,0.00,0,Wunderground v.1.15,2013-03-03 03:07:00,
2013-03-02 19:12:00,62.9,57.3,30.09,NNE,26,0.0,0.0,82,0.00,,,0.00,0,Wunderground v.1.15,2013-03-03 03:12:00,
2013-03-02 19:17:00,62.5,57.3,30.09,ENE,62,0.0,1.0,83,0.00,,,0.00,0,Wunderground v.1.15,2013-03-03 03:17:00,
2013-03-02 19:23:00,62.0,57.4,30.09,ENE,62,0.0,0.0,85,0.00,,,0.00,0,Wunderground v.1.15,2013-03-03 03:23:00,
2013-03-02 19:29:00,61.7,57.5,30.10,ENE,76,0.0,1.0,86,0.00,,,0.00,0,Wunderground v.1.15,2013-03-03 03:29:00,
2013-03-02 19:35:00,61.7,57.5,30.10,East,93,2.0,2.0,86,0.00,,,0.00,0,Wunderground v.1.15,2013-03-03 03:35:00,
2013-03-02 19:40:00,61.4,57.2,30.09,East,98,0.0,0.0,86,0.00,,,0.00,0,Wunderground v.1.15,2013-03-03 03:40:00,
2013-03-02 19:45:00,61.2,57.0,30.08,East,89,0.0,1.0,86,0.00,,,0.00,0,Wunderground v.1.15,2013-03-03 03:45:00,
2013-03-02 19:51:00,61.1,56.9,30.08,East,80,0.0,0.0,86,0.00,,,0.00,0,Wunderground v.1.15,2013-03-03 03:51:00,
2013-03-02 19:58:00,60.9,56.7,30.08,East,80,0.0,0.0,86,0.00,,,0.00,0,Wunderground v.1.15,2013-03-03 03:58:00,
2013-03-02 20:03:00,60.9,56.7,30.08,East,81,0.0,1.0,86,0.00,,,0.00,0,Wunderground v.1.15,2013-03-03 04:03:00,
2013-03-02 20:08:00,60.8,56.6,30.07,ESE,111,1.0,2.0,86,0.00,,,0.00,0,Wunderground v.1.15,2013-03-03 04:08:00,
2013-03-02 20:14:00,60.9,56.7,30.07,SE,129,1.0,3.0,86,0.00,,,0.00,0,Wunderground v.1.15,2013-03-03 04:14:00,
2013-03-02 20:20:00,60.8,56.9,30.07,ESE,116,2.0,2.0,87,0.00,,,0.00,0,Wunderground v.1.15,2013-03-03 04:20:00,
2013-03-02 20:26:00,60.8,56.6,30.07,ESE,107,0.0,2.0,86,0.00,,,0.00,0,Wunderground v.1.15,2013-03-03 04:26:00,
2013-03-02 20:31:00,60.8,56.6,30.07,ESE,121,1.0,1.0,86,0.00,,,0.00,0,Wunderground v.1.15,2013-03-03 04:31:00,
2013-03-02 20:37:00,60.7,56.8,30.07,SE,125,0.0,1.0,87,0.00,,,0.00,0,Wunderground v.1.15,2013-03-03 04:37:00,
2013-03-02 20:42:00,60.6,56.7,30.07,SE,124,0.0,0.0,87,0.00,,,0.00,0,Wunderground v.1.15,2013-03-03 04:42:00,
2013-03-02 20:48:00,60.4,56.8,30.08,SE,125,0.0,0.0,88,0.00,,,0.00,0,Wunderground v.1.15,2013-03-03 04:48:00,
2013-03-02 20:54:00,60.3,56.4,30.08,SE,124,0.0,0.0,87,0.00,,,0.00,0,Wunderground v.1.15,2013-03-03 04:54:00,
2013-03-02 20:59:00,60.2,56.3,30.09,SE,124,1.0,1.0,87,0.00,,,0.00,0,Wunderground v.1.15,2013-03-03 04:59:00,
2013-03-02 21:00:00,60.2,56.3,30.09,SE,124,0.0,3.0,87,0.00,,,0.00,0,Wunderground v.1.15,2013-03-03 05:00:00,
2013-03-02 21:01:00,60.2,56.3,30.08,SE,124,0.0,3.0,87,0.00,,,0.00,0,Wunderground v.1.15,2013-03-03 05:01:00,
2013-03-02 21:07:00,60.1,56.2,30.09,ESE,114,0.0,3.0,87,0.00,,,0.00,0,Wunderground v.1.15,2013-03-03 05:07:00,
2013-03-02 21:09:00,60.1,56.2,30.09,ESE,114,1.0,3.0,87,0.00,,,0.00,0,Wunderground v.1.15,2013-03-03 05:09:00,
2013-03-02 21:14:00,60.1,56.5,30.09,ESE,122,0.0,1.0,88,0.00,,,0.00,0,Wunderground v.1.15,2013-03-03 05:14:00,
2013-03-02 21:19:00,60.0,56.4,30.08,ESE,122,0.0,0.0,88,0.00,,,0.00,0,Wunderground v.1.15,2013-03-03 05:19:00,
2013-03-02 21:25:00,59.7,56.1,30.08,East,101,0.0,0.0,88,0.00,,,0.00,0,Wunderground v.1.15,2013-03-03 05:25:00,
2013-03-02 21:26:00,59.6,56.4,30.08,East,101,0.0,0.0,89,0.00,,,0.00,0,Wunderground v.1.15,2013-03-03 05:26:00,
2013-03-02 21:31:00,59.5,56.3,30.08,East,101,0.0,0.0,89,0.00,,,0.00,0,Wunderground v.1.15,2013-03-03 05:31:00,
2013-03-02 21:36:00,59.4,56.2,30.08,NNE,27,1.0,1.0,89,0.00,,,0.00,0,Wunderground v.1.15,2013-03-03 05:36:00,
2013-03-02 21:42:00,59.3,56.1,30.08,NNW,340,0.0,1.0,89,0.00,,,0.00,0,Wunderground v.1.15,2013-03-03 05:42:00,
2013-03-02 21:47:00,59.3,56.4,30.08,NNW,340,1.0,1.0,90,0.00,,,0.00,0,Wunderground v.1.15,2013-03-03 05:47:00,
2013-03-02 21:53:00,59.2,56.3,30.08,North,357,0.0,0.0,90,0.00,,,0.00,0,Wunderground v.1.15,2013-03-03 05:53:00,
2013-03-02 21:58:00,59.1,56.5,30.09,SE,138,1.0,1.0,91,0.00,,,0.00,0,Wunderground v.1.15,2013-03-03 05:58:00,
2013-03-02 22:07:00,58.9,56.0,30.09,SE,138,0.0,1.0,90,0.00,,,0.00,0,Wunderground v.1.15,2013-03-03 06:07:00,
2013-03-02 22:12:00,59.0,55.8,30.09,SE,138,0.0,0.0,89,0.00,,,0.00,0,Wunderground v.1.15,2013-03-03 06:12:00,
2013-03-02 22:18:00,59.1,55.2,30.09,SE,138,0.0,0.0,87,0.00,,,0.00,0,Wunderground v.1.15,2013-03-03 06:18:00,
2013-03-02 22:23:00,59.3,55.1,30.09,SE,138,0.0,0.0,86,0.00,,,0.00,0,Wunderground v.1.15,2013-03-03 06:23:00,
2013-03-02 22:28:00,59.4,55.2,30.08,SE,134,0.0,0.0,86,0.00,,,0.00,0,Wunderground v.1.15,2013-03-03 06:28:00,
2013-03-02 22:34:00,59.3,55.1,30.08,SE,134,0.0,0.0,86,0.00,,,0.00,0,Wunderground v.1.15,2013-03-03 06:34:00,
2013-03-02 22:40:00,59.2,55.3,30.09,SE,134,0.0,0.0,87,0.00,,,0.00,0,Wunderground v.1.15,2013-03-03 06:40:00,
2013-03-02 22:46:00,59.1,55.2,30.10,SE,146,2.0,2.0,87,0.00,,,0.00,0,Wunderground v.1.15,2013-03-03 06:46:00,
2013-03-02 22:51:00,58.9,55.0,30.09,SE,129,0.0,1.0,87,0.00,,,0.00,0,Wunderground v.1.15,2013-03-03 06:51:00,
2013-03-02 22:57:00,58.7,55.5,30.09,SE,129,0.0,1.0,89,0.00,,,0.00,0,Wunderground v.1.15,2013-03-03 06:57:00,
2013-03-02 23:03:00,58.4,55.2,30.08,NNE,31,0.0,3.0,89,0.00,,,0.00,0,Wunderground v.1.15,2013-03-03 07:03:00,
2013-03-02 23:08:00,57.9,55.3,30.08,NE,42,0.0,3.0,91,0.00,,,0.00,0,Wunderground v.1.15,2013-03-03 07:08:00,
2013-03-02 23:14:00,57.9,54.7,30.08,East,99,3.0,3.0,89,0.00,,,0.00,0,Wunderground v.1.15,2013-03-03 07:14:00,
2013-03-02 23:20:00,57.9,54.7,30.08,SSE,158,0.0,1.0,89,0.00,,,0.00,0,Wunderground v.1.15,2013-03-03 07:20:00,
2013-03-02 23:26:00,57.9,54.4,30.08,ESE,104,0.0,1.0,88,0.00,,,0.00,0,Wunderground v.1.15,2013-03-03 07:26:00,
2013-03-02 23:31:00,58.3,53.2,30.08,ESE,106,0.0,2.0,83,0.00,,,0.00,0,Wunderground v.1.15,2013-03-03 07:31:00,
2013-03-02 23:37:00,58.3,53.8,30.08,East,87,0.0,2.0,85,0.00,,,0.00,0,Wunderground v.1.15,2013-03-03 07:37:00,
2013-03-02 23:44:00,58.4,53.6,30.08,SE,129,2.0,2.0,84,0.00,,,0.00,0,Wunderground v.1.15,2013-03-03 07:44:00,
2013-03-02 23:50:00,58.3,53.8,30.08,ESE,116,3.0,3.0,85,0.00,,,0.00,0,Wunderground v.1.15,2013-03-03 07:50:00,
2013-03-02 23:55:00,58.3,53.5,30.08,SE,127,1.0,4.0,84,0.00,,,0.00,0,Wunderground v.1.15,2013-03-03 07:55:00,